Dubuque, IA

4:25 PM CST on December 11, 2019 (GMT -0600)
Dubuque Regional

Weather History for KDBQ - July, 2019

Change the Weather History Date:

Monday, July 22, 2019

  Actual Average Record
Temperature  
Mean Temperature 68 °F 72 °F  
Max Temperature 76 °F 82 °F 103 °F (1934)
Min Temperature 59 °F 62 °F 51 °F (1947)
Degree Days  
Heating Degree Days 0 0  
Month to date heating degree days 0 0  
Since 1 June heating degree days 29 40  
Since 1 July heating degree days 0 0  
Cooling Degree Days 3 7  
Month to date cooling degree days 249 155  
Year to date cooling degree days 389 331  
Since 1 June cooling degree days 363 294  
Growing Degree Days 18 (Base 50)    
Moisture  
Dew Point 58 °F    
Average Humidity 72    
Maximum Humidity 93    
Minimum Humidity 50    
Precipitation  
Precipitation 0.00 in 0.14 in 2.84 in (2010)
Month to date precipitation 2.83 3.08  
Year to date precipitation 25.56 20.35  
Snow  
Snow 0.00 in 0.00 in - ()
Month to date snowfall 0.0 0.0  
Since 1 June snowfall 0.0 0.0  
Since 1 July snowfall 0.0 0.0  
Snow Depth 0.00 in    
Sea Level Pressure  
Sea Level Pressure 30.11 in    
Wind  
Wind Speed 9 mph (North)    
Max Wind Speed 18 mph    
Max Gust Speed 25 mph    
Visibility 10 miles    
Events      
T = Trace of Precipitation, MM = Missing Value Source: NWS Daily Summary

Daily Weather History Graph

Daily Weather History Graph

Search for Another Location

Airport or City:

Astronomy

Jul. 22, 2019 Rise Set
Actual Time 5:45 AM CDT 8:32 PM CDT
Civil Twilight 5:12 AM CDT 9:05 PM CDT
Nautical Twilight 4:30 AM CDT 9:46 PM CDT
Astronomical Twilight 3:42 AM CDT 10:34 PM CDT
Moon 11:47 PM CDT (7/22) 11:07 AM CDT (7/22)
Length of Visible Light 15h 53m
Length of Day
14h 47m
Waning Gibbous, 72% of the Moon is Illuminated
Jul 22
Waning Gibbous
Jul 24
Last Quarter
Jul 31
New
Aug 7
First Quarter
Aug 15
Full

Hourly Weather History & Observations

Time (CDT) Temp. Dew Point Humidity Pressure Visibility Wind Dir Wind Speed Gust Speed Precip Events Conditions
12:53 AM 68.0 °F 59.0 °F 73% 30.04 in 10.0 mi Calm Calm - N/A   Clear
1:53 AM 66.9 °F 60.1 °F 79% 30.04 in 10.0 mi North 3.5 mph - N/A   Clear
2:53 AM 66.9 °F 60.1 °F 79% 30.03 in 10.0 mi North 5.8 mph - N/A   Partly Cloudy
3:53 AM 66.0 °F 60.1 °F 81% 30.04 in 10.0 mi North 5.8 mph - N/A   Clear
4:53 AM 64.0 °F 60.1 °F 87% 30.05 in 10.0 mi North 6.9 mph - N/A   Clear
5:53 AM 63.0 °F 60.1 °F 90% 30.07 in 10.0 mi North 6.9 mph - N/A   Clear
6:53 AM 64.9 °F 61.0 °F 87% 30.09 in 10.0 mi NNE 9.2 mph - N/A   Clear
7:53 AM 66.9 °F 61.0 °F 81% 30.11 in 10.0 mi NNE 10.4 mph - N/A   Clear
8:53 AM 68.0 °F 60.1 °F 76% 30.12 in 10.0 mi NE 12.7 mph - N/A   Clear
9:53 AM 69.1 °F 59.0 °F 70% 30.13 in 10.0 mi NE 9.2 mph - N/A   Clear
10:53 AM 73.0 °F 60.1 °F 64% 30.13 in 10.0 mi NE 12.7 mph - N/A   Partly Cloudy
11:53 AM 73.9 °F 57.9 °F 57% 30.13 in 10.0 mi NNE 12.7 mph - N/A   Scattered Clouds
12:53 PM 73.9 °F 57.9 °F 57% 30.14 in 10.0 mi NNE 5.8 mph - N/A   Overcast
1:53 PM 73.9 °F 57.9 °F 57% 30.13 in 10.0 mi North 12.7 mph - N/A   Mostly Cloudy
2:53 PM 75.0 °F 59.0 °F 57% 30.12 in 10.0 mi North 10.4 mph - N/A   Scattered Clouds
3:53 PM 75.0 °F 57.0 °F 53% 30.12 in 10.0 mi North 12.7 mph 25.3 mph N/A   Mostly Cloudy
4:53 PM 75.9 °F 55.0 °F 48% 30.13 in 10.0 mi North 12.7 mph - N/A   Partly Cloudy
5:53 PM 73.0 °F 55.0 °F 53% 30.13 in 10.0 mi North 16.1 mph - N/A   Scattered Clouds
6:53 PM 72.0 °F 53.1 °F 51% 30.14 in 10.0 mi North 12.7 mph - N/A   Clear
7:53 PM 69.1 °F 54.0 °F 58% 30.15 in 10.0 mi NNW 6.9 mph - N/A   Clear
8:53 PM 63.0 °F 54.0 °F 72% 30.15 in 10.0 mi NNW 6.9 mph - N/A   Clear
9:53 PM 62.1 °F 54.0 °F 75% 30.17 in 10.0 mi NW 6.9 mph - N/A   Clear
10:53 PM 62.1 °F 53.1 °F 72% 30.17 in 10.0 mi NW 6.9 mph - N/A   Clear
11:53 PM 62.1 °F 53.1 °F 72% 30.17 in 10.0 mi NW 6.9 mph - N/A   Clear